Wetbulb
50.55 50.53 50.43 50.63 50.31 49.19 44.78 38.67 27.19 40.78 47.15 35.06 33.88 28.00 31.90 36.56 33.99 36.63 34.84 34.22 32.10 30.41 32.64 31.50 30.69 29.87 33.57 39.95 39.52 32.90 36.83 32.64 31.54 36.11 39.94 43.43 41.09 36.48 36.01 33.19 30.24 32.03 32.31 33.36
50.38 50.35 50.34 50.46 50.23 49.12 43.17 34.81 33.43 41.59 43.27 28.89 30.87 34.10 33.44 34.45 33.62 33.94 33.87 32.56 34.34 35.61 32.65 28.20 33.35 33.99 38.69 39.35 37.82 34.94 37.40 31.83 28.16 30.75 36.10 38.81 38.71 38.87 38.13 35.19 33.74 32.74 30.07 32.83
50.30 50.01 50.29 50.36 50.13 49.32 38.97 32.33 28.43 32.78 36.03 36.18 33.71 30.41 30.36 30.73 36.76 34.59 34.79 33.64 34.62 32.01 31.69 34.36 31.45 33.21 37.64 39.71 38.91 42.83 40.22 32.08 31.27 29.06 32.60 36.39 36.03 38.43 39.31 34.99 29.93 33.12 37.37 37.28
49.56 49.53 50.09 50.29 49.76 48.32 38.74 32.53 30.52 36.87 27.57 28.95 33.08 31.14 30.58 29.64 30.12 35.22 35.17 30.99 31.79 30.78 28.96 31.37 31.75 35.25 36.80 38.97 41.07 40.01 36.44 27.74 32.66 34.20 37.33 38.71 37.77 38.85 38.74 37.49 38.22 34.57 37.16 38.93
49.19 48.86 49.32 49.95 49.84 46.56 36.45 32.06 31.97 35.47 32.50 34.08 30.37 29.39 28.95 29.71 32.28 33.10 32.25 31.22 33.56 33.20 29.67 32.56 30.42 34.39 35.65 34.87 37.62 36.88 37.59 27.78 31.85 29.97 37.77 38.86 37.62 38.58 39.95 39.88 39.22 38.70 39.31 38.88
48.53 48.42 48.46 49.35 49.47 45.28 36.34 36.85 38.44 38.29 32.70 31.69 26.16 24.67 30.48 31.13 33.04 34.27 36.23 35.06 32.95 31.56 33.42 37.18 37.59 37.78 38.38 38.28 36.33 34.84 34.03 29.91 27.64 25.30 33.23 34.61 32.62 38.52 38.44 39.69 41.73 40.87 37.64 42.58
47.88 47.98 47.97 49.07 49.54 48.86 43.82 41.74 41.03 35.65 29.06 30.66 30.65 31.31 32.46 31.34 33.67 32.52 34.97 36.06 32.85 35.96 39.15 39.70 38.10 37.60 37.42 38.19 37.98 39.13 33.87 31.30 28.96 25.83 31.34 26.30 37.25 42.38 42.95 39.97 41.27 42.32 42.06 43.84
48.36 48.25 48.96 49.04 49.70 49.84 44.38 43.06 41.23 37.10 30.60 32.90 32.49 33.23 33.04 33.69 34.91 32.16 33.38 36.05 38.54 37.18 35.51 30.80 29.16 32.46 33.28 35.54 37.40 37.29 37.63 33.95 27.26 25.72 28.70 33.86 37.94 40.33 39.18 37.28 38.70 43.77 43.69 45.57
48.61 48.54 49.09 49.55 49.83 49.80 45.31 43.74 43.26 40.70 33.85 29.95 35.31 34.19 34.45 33.37 32.95 32.49 34.20 38.55 39.54 38.32 32.92 28.51 24.98 22.63 30.58 30.52 33.92 38.17 37.70 36.39 31.79 29.06 28.19 26.41 36.33 42.25 44.74 43.11 34.90 43.51 46.68 45.11
48.83 48.42 49.32 49.75 49.84 50.04 46.33 43.31 43.76 42.17 35.66 36.68 37.14 33.70 33.79 37.41 36.57 34.75 35.53 35.19 35.63 40.39 35.03 28.83 25.50 23.92 33.94 28.81 31.52 32.32 31.90 32.12 28.55 27.70 26.29 32.41 40.58 42.25 44.15 34.21 33.63 42.64 44.97 48.50
48.56 48.39 49.33 49.77 50.32 50.61 46.99 41.14 43.65 42.41 37.58 36.28 37.76 38.65 35.30 37.37 37.04 33.82 36.80 35.63 37.18 34.33 31.28 28.40 26.86 29.21 34.17 32.92 34.44 33.11 33.53 31.79 28.91 29.61 28.00 29.22 42.07 41.64 35.83 39.29 42.26 43.37 43.75 44.92
48.61 48.17 49.24 49.89 50.26 50.80 49.88 42.96 43.10 45.24 40.36 38.21 39.67 41.00 41.76 40.21 40.15 37.87 38.76 37.05 36.57 38.00 32.61 34.35 32.18 33.40 34.39 33.44 28.81 37.47 31.91 35.70 33.70 35.74 36.51 43.12 43.16 43.27 44.83 43.09 41.93 43.35 43.66 44.95
48.66 48.88 49.42 49.92 50.21 50.34 49.50 43.70 43.97 43.17 39.24 37.15 37.34 37.32 41.56 43.05 42.55 43.60 36.69 38.54 40.34 39.03 42.23 37.50 35.27 31.94 37.20 30.72 33.46 34.60 37.83 40.19 37.26 36.94 42.22 41.68 43.67 45.90 45.78 44.57 43.52 44.90 45.72 46.10
48.50 48.94 49.70 50.01 49.88 49.32 49.21 45.08 44.76 43.09 39.40 35.21 36.38 43.31 41.95 46.55 45.06 44.41 43.21 42.04 43.50 42.93 42.55 38.40 35.41 34.18 39.38 34.54 34.90 34.52 37.16 39.01 37.49 36.92 41.27 42.10 44.64 44.37 44.02 44.30 45.63 45.25 46.26 47.15
48.45 49.13 49.36 49.34 49.15 48.34 46.44 43.31 44.61 43.72 39.00 34.93 36.45 40.89 43.24 47.29 47.08 45.61 44.67 42.24 40.84 39.63 37.89 36.48 33.89 37.53 38.20 39.54 37.50 35.33 39.52 36.32 36.33 35.87 41.14 41.47 41.28 44.63 45.43 44.15 44.59 45.04 45.58 46.80
48.37 48.49 49.03 49.18 48.98 48.41 39.65 34.84 39.95 44.98 44.67 38.89 33.08 39.57 40.42 43.83 45.60 45.30 44.35 42.47 41.47 40.86 39.72 38.40 38.12 37.12 38.99 34.62 33.43 37.15 40.79 42.78 42.06 40.63 44.36 43.70 44.68 46.36 47.07 43.96 45.15 46.14 46.36 49.27
47.94 47.92 48.43 50.04 49.79 41.19 36.19 35.33 42.56 46.19 44.96 38.75 34.67 34.24 40.92 43.39 44.53 44.46 44.40 43.87 41.33 40.99 40.01 37.87 34.22 33.92 36.51 32.07 28.70 37.33 39.80 40.89 43.64 45.04 44.96 43.18 45.27 43.40 46.14 46.46 46.83 46.97 48.07 51.27
47.34 47.11 49.74 49.72 49.38 46.42 39.44 42.69 47.63 46.23 41.00 41.55 33.64 33.38 37.79 43.20 39.90 39.42 42.66 40.45 40.40 39.23 37.37 34.05 32.85 33.31 33.25 29.09 36.54 39.00 40.41 40.51 42.07 43.11 43.47 43.07 44.49 46.41 46.50 46.99 46.70 45.31 46.20 50.01
46.20 48.35 49.75 44.58 39.80 38.01 40.48 49.16 48.40 45.83 39.89 35.87 35.63 32.06 31.26 41.39 40.60 40.99 38.25 39.24 36.40 38.88 35.82 37.77 37.65 32.52 30.15 35.78 38.38 39.46 40.90 39.98 39.95 41.60 41.75 42.28 42.67 44.62 45.69 45.87 45.51 44.83 45.50 48.02
47.15 43.36 40.24 36.52 40.94 48.33 48.15 40.79 37.92 39.31 40.04 40.98 36.10 38.88 33.61 38.80 39.45 37.98 34.75 35.15 33.77 33.31 36.33 39.60 35.21 33.43 38.93 40.91 41.18 41.65 42.31 42.86 42.86 38.75 38.88 40.44 42.86 44.74 45.15 45.45 46.36 46.09 46.62 47.49
39.06 38.54 36.76 41.23 46.60 40.69 37.03 33.52 32.99 33.46 32.26 37.24 37.45 36.92 33.96 42.06 35.83 34.70 36.55 32.39 32.89 29.42 34.00 34.48 33.58 33.43 36.98 42.02 42.26 43.01 43.96 44.42 43.81 43.56 42.44 42.19 42.25 42.63 43.46 44.65 45.90 46.42 47.13 47.29
39.06 39.80 42.54 44.04 37.93 34.77 32.18 27.85 31.37 32.03 30.73 34.88 34.28 34.98 36.32 40.26 38.75 31.87 34.05 31.50 32.07 26.94 36.15 33.44 31.44 37.13 40.91 42.26 43.49 43.79 44.84 45.48 45.49 45.87 43.23 43.42 43.90 45.09 45.00 45.49 46.26 46.57 47.67 48.33
45.61 42.81 40.93 34.29 32.72 25.04 29.24 26.96 29.52 29.36 33.43 34.54 34.14 32.23 35.22 36.41 34.00 33.08 28.51 24.37 29.13 34.28 30.11 30.31 35.27 39.09 41.14 42.48 43.76 45.19 46.09 45.79 45.72 45.88 45.03 44.84 45.66 46.42 46.11 46.36 47.85 47.37 47.31 48.41
38.96 37.01 30.81 30.84 27.97 28.56 28.16 28.80 31.35 34.81 34.35 34.74 33.43 32.25 32.31 32.17 30.43 34.35 25.45 31.49 29.11 18.53 19.92 28.84 35.50 38.39 40.84 42.60 44.38 44.56 45.02 45.67 44.98 44.77 44.84 45.32 46.41 47.78 48.93 49.42 48.85 47.94 47.07 48.92
37.68 33.88 27.96 31.26 34.90 34.65 34.94 35.35 34.62 36.04 36.00 33.93 33.12 32.30 33.08 28.44 29.88 32.75 28.62 25.94 16.38 25.98 27.08 34.37 37.48 39.52 40.36 41.53 43.70 44.17 44.49 44.62 44.83 45.44 43.91 44.18 45.30 47.04 47.67 47.09 47.71 47.71 47.40 50.71
40.24 37.20 32.13 34.01 34.03 34.13 34.64 34.54 33.68 35.69 34.57 34.87 33.73 29.97 29.21 28.63 31.48 23.18 28.19 28.37 21.46 31.17 33.34 36.68 39.03 39.03 39.54 41.57 43.63 43.87 45.18 45.40 46.12 46.16 44.63 44.22 45.16 46.39 48.09 49.45 50.39 48.00 47.88 48.25
38.30 33.61 36.07 34.19 33.51 34.25 34.99 35.01 35.65 35.50 34.28 31.06 31.63 29.62 27.92 29.02 21.86 23.65 31.83 32.06 30.10 33.84 37.24 39.70 39.46 38.43 39.42 40.65 43.28 43.46 44.59 45.69 45.49 46.37 47.73 46.86 47.12 46.54 47.15 46.96 48.44 49.45 49.74 50.04
MSLP
1020.82 1020.14 1019.43 1018.66 1017.84 1017.06 1016.61 1016.70 1016.24 1014.71 1014.48 1014.81 1014.87 1014.49 1013.59 1012.56 1011.48 1010.96 1010.59 1010.11 1009.80 1009.17 1008.66 1008.04 1007.56 1007.54 1007.56 1006.74 1005.88 1004.74 1003.73 1002.45 1000.58 998.92 997.98 998.21 998.64 999.25 1000.01 1001.34 1002.35 1002.89 1002.09 1000.10
1020.70 1020.09 1019.41 1018.67 1017.90 1017.27 1017.25 1017.10 1016.47 1014.95 1015.01 1015.32 1015.02 1014.45 1013.62 1012.81 1011.89 1011.19 1010.67 1010.28 1009.66 1009.23 1008.98 1008.77 1007.69 1007.52 1007.60 1007.36 1006.90 1005.93 1004.90 1003.59 1002.21 1000.39 999.28 998.23 997.89 998.35 999.35 1000.34 1001.34 1001.83 1001.53 999.59
1020.62 1020.04 1019.35 1018.63 1017.96 1017.42 1017.68 1017.66 1017.16 1016.21 1015.70 1015.77 1015.45 1014.81 1013.71 1012.84 1011.83 1011.23 1010.80 1010.35 1009.82 1009.61 1009.10 1008.49 1008.05 1007.52 1006.80 1006.75 1007.03 1006.50 1005.81 1004.81 1003.59 1001.44 999.46 998.58 998.56 998.62 999.03 999.76 1000.52 1000.36 999.27 998.75
1020.46 1019.92 1019.28 1018.62 1018.02 1017.64 1017.82 1018.09 1017.82 1017.17 1016.73 1016.02 1015.60 1015.28 1014.33 1013.34 1012.40 1011.67 1010.99 1010.40 1010.05 1010.07 1009.53 1008.61 1007.84 1007.35 1006.84 1006.44 1006.60 1007.11 1006.82 1005.82 1004.37 1002.52 1000.88 999.94 998.70 997.87 997.92 997.97 998.56 998.80 998.24 997.97
1020.25 1019.76 1019.30 1018.68 1018.13 1017.69 1017.98 1018.29 1018.10 1017.33 1016.85 1016.35 1015.75 1014.95 1014.20 1013.60 1012.73 1012.20 1011.25 1010.80 1010.37 1010.16 1009.82 1008.93 1008.19 1007.76 1007.16 1006.69 1006.77 1007.19 1007.50 1006.43 1005.04 1003.03 1000.83 1000.14 999.05 997.99 997.31 997.39 997.57 997.82 997.61 997.09
1020.06 1019.52 1019.09 1018.61 1018.15 1017.86 1018.08 1017.99 1017.68 1017.44 1016.62 1016.14 1015.99 1015.45 1014.54 1013.92 1013.29 1011.82 1011.27 1010.96 1010.63 1009.82 1009.20 1008.87 1008.23 1007.72 1007.28 1007.01 1007.09 1007.05 1007.40 1007.01 1006.01 1004.23 1002.23 1000.51 998.67 996.50 997.10 997.16 996.65 997.03 997.00 995.87
1019.84 1019.37 1018.93 1018.40 1017.90 1017.69 1017.97 1017.88 1017.87 1017.41 1016.74 1016.37 1015.74 1014.94 1014.44 1013.79 1013.29 1012.52 1011.44 1011.00 1010.44 1009.54 1008.99 1008.27 1007.29 1006.75 1006.44 1006.18 1005.98 1006.18 1006.56 1006.84 1006.39 1004.98 1003.01 1000.66 997.27 995.65 996.24 996.86 996.65 996.78 996.39 996.01
1019.63 1019.03 1018.59 1018.08 1017.66 1017.37 1017.65 1017.56 1017.60 1017.23 1016.39 1015.55 1014.77 1014.31 1013.90 1013.33 1012.65 1012.00 1011.29 1010.46 1009.79 1009.55 1009.22 1008.53 1007.46 1006.48 1006.09 1005.16 1004.93 1005.38 1006.06 1006.68 1006.32 1005.29 1003.51 1000.29 997.67 997.58 997.90 997.32 997.11 996.98 996.84 996.22
1019.30 1018.63 1017.93 1017.49 1017.10 1016.91 1016.93 1016.90 1016.97 1016.83 1016.21 1014.72 1014.20 1013.80 1013.29 1012.74 1012.07 1011.35 1010.78 1010.03 1009.52 1009.47 1009.37 1008.91 1008.20 1007.02 1005.55 1005.12 1004.89 1005.20 1005.79 1006.24 1006.39 1005.43 1004.24 1001.41 999.77 999.01 998.33 998.26 998.57 998.52 998.18 997.21
1018.94 1018.17 1017.36 1016.93 1016.59 1016.34 1016.47 1016.47 1016.56 1016.47 1015.92 1014.18 1013.85 1013.30 1012.86 1012.50 1012.10 1011.68 1010.97 1010.54 1009.89 1009.59 1009.18 1008.86 1008.11 1006.92 1005.78 1005.22 1004.70 1005.15 1005.55 1006.39 1006.18 1005.59 1004.54 1002.04 1000.98 999.00 997.99 999.07 1000.60 999.62 999.19 998.38
1018.46 1017.70 1016.99 1016.60 1016.09 1015.70 1016.10 1016.17 1016.07 1016.23 1015.30 1013.57 1012.93 1012.62 1012.35 1012.06 1012.02 1011.67 1011.14 1010.84 1010.15 1009.71 1009.29 1008.98 1008.25 1007.15 1006.13 1005.29 1005.14 1005.26 1005.39 1005.82 1005.93 1005.63 1004.47 1002.76 1001.22 999.84 1000.60 1001.75 1000.82 1000.36 999.55 998.92
1017.97 1017.21 1016.53 1015.97 1015.55 1015.22 1015.26 1015.58 1015.42 1015.47 1015.31 1013.20 1012.44 1011.87 1011.34 1010.97 1010.67 1011.45 1011.22 1010.92 1010.62 1009.96 1009.49 1009.17 1008.47 1007.56 1007.04 1006.50 1006.23 1006.15 1005.91 1005.74 1005.69 1005.54 1003.82 1002.46 1002.18 1001.94 1001.54 1001.42 1001.20 1000.27 999.64 998.52
1017.42 1016.68 1015.95 1015.46 1015.11 1014.75 1014.71 1014.89 1014.78 1015.03 1014.59 1012.61 1011.75 1010.59 1009.72 1009.82 1009.90 1010.01 1010.84 1010.26 1009.94 1009.76 1009.41 1009.22 1008.65 1008.05 1007.44 1006.86 1006.11 1005.63 1005.71 1005.77 1005.39 1005.05 1003.05 1002.86 1001.83 1001.44 1001.40 1001.19 1000.63 999.99 999.16 998.10
1016.83 1016.07 1015.30 1014.81 1014.48 1014.37 1014.22 1014.32 1014.25 1014.77 1014.44 1013.35 1010.83 1009.67 1009.55 1009.18 1009.26 1009.63 1009.62 1009.51 1009.63 1009.71 1009.59 1009.30 1008.87 1008.20 1007.24 1006.57 1006.48 1006.34 1006.46 1005.89 1005.34 1004.73 1003.48 1002.40 1001.42 1001.39 1001.29 1000.55 999.94 999.09 998.32 997.48
1016.18 1015.38 1014.67 1014.19 1013.92 1013.91 1013.87 1013.93 1013.73 1014.11 1014.60 1013.32 1011.23 1010.01 1009.13 1008.97 1008.83 1009.00 1009.16 1009.47 1009.71 1009.68 1009.44 1009.15 1008.81 1008.05 1007.68 1007.01 1006.94 1006.52 1006.15 1005.53 1005.37 1004.80 1003.94 1003.65 1002.54 1001.77 1001.28 1000.62 999.84 999.00 998.42 996.96
1015.42 1014.64 1013.93 1013.49 1013.32 1013.54 1014.16 1013.93 1013.50 1013.62 1014.07 1013.54 1012.10 1010.44 1009.33 1008.77 1008.25 1008.30 1008.34 1008.85 1009.20 1009.37 1009.03 1008.72 1008.32 1007.64 1007.61 1007.31 1007.23 1006.72 1006.10 1005.64 1005.20 1004.67 1004.05 1003.47 1002.68 1002.03 1001.29 1000.74 999.84 998.95 998.02 996.99
1014.75 1013.85 1012.97 1012.35 1012.57 1013.42 1013.58 1013.33 1013.19 1013.21 1013.76 1013.55 1012.43 1011.24 1009.47 1008.95 1008.36 1008.15 1008.31 1008.54 1008.83 1009.00 1008.79 1008.56 1008.27 1007.71 1007.46 1007.35 1007.15 1006.68 1006.41 1006.03 1004.59 1004.29 1004.06 1002.92 1002.43 1001.92 1001.18 1000.55 999.74 999.01 998.01 996.90
1013.92 1013.11 1012.37 1011.89 1012.26 1012.83 1012.67 1012.35 1012.54 1012.92 1013.25 1013.27 1013.04 1011.56 1010.34 1009.42 1008.98 1008.57 1008.63 1008.76 1008.92 1008.94 1008.81 1008.58 1008.37 1007.77 1007.50 1007.59 1007.21 1006.81 1006.06 1004.82 1004.39 1004.17 1003.95 1003.33 1002.76 1002.03 1000.82 1000.63 999.96 999.30 998.20 997.07
1013.24 1012.43 1012.34 1012.43 1012.62 1012.87 1012.66 1012.17 1012.03 1012.62 1013.22 1013.01 1013.07 1012.22 1010.93 1009.93 1009.42 1009.31 1009.23 1009.08 1009.09 1009.09 1008.88 1008.50 1008.35 1008.42 1008.15 1007.94 1007.48 1006.63 1005.82 1005.17 1004.84 1004.15 1003.62 1003.26 1002.81 1002.24 1001.43 1000.77 999.73 999.18 998.03 997.00
1012.85 1012.54 1012.69 1012.70 1012.43 1012.17 1012.07 1012.62 1012.92 1012.95 1012.77 1012.75 1012.54 1011.94 1011.31 1010.83 1009.85 1009.76 1009.89 1009.70 1009.77 1009.39 1009.06 1008.52 1008.17 1007.72 1007.59 1007.10 1006.76 1005.90 1005.48 1005.19 1004.33 1003.95 1003.39 1002.97 1002.18 1001.86 1000.77 999.67 999.49 999.01 998.09 997.43
1014.32 1014.33 1013.88 1012.98 1012.26 1012.12 1012.24 1012.56 1012.80 1012.82 1012.72 1012.29 1011.54 1011.40 1011.10 1010.43 1010.38 1010.38 1010.55 1010.37 1010.10 1009.79 1009.55 1009.02 1008.39 1008.01 1007.24 1006.37 1005.98 1005.47 1004.79 1004.18 1003.34 1002.71 1002.84 1002.64 1002.66 1002.11 1000.85 1000.22 999.39 998.77 998.20 997.81
1015.84 1015.62 1014.76 1013.66 1012.75 1012.38 1012.47 1012.58 1012.67 1012.60 1012.24 1011.41 1011.19 1010.78 1010.69 1010.53 1010.63 1010.78 1010.76 1010.75 1010.59 1010.29 1009.98 1009.28 1008.63 1007.91 1006.49 1005.56 1004.59 1003.99 1003.49 1002.85 1002.44 1001.46 1001.44 1001.60 1001.35 1001.16 1000.75 1000.05 999.09 998.26 997.85 997.83
1014.73 1014.75 1014.13 1013.62 1012.89 1012.78 1012.67 1012.70 1012.51 1012.41 1011.61 1010.81 1010.83 1010.80 1010.82 1010.74 1010.97 1011.10 1011.02 1011.07 1010.96 1010.55 1010.21 1009.78 1009.10 1007.77 1006.51 1005.50 1004.74 1003.81 1003.16 1002.74 1001.91 1001.28 1000.92 1000.84 1000.90 1000.24 999.86 999.26 998.39 997.97 997.96 997.66
1014.75 1014.26 1013.75 1013.24 1012.59 1012.23 1012.15 1011.99 1011.79 1011.24 1011.02 1010.61 1010.85 1010.89 1011.13 1011.09 1011.09 1011.11 1011.19 1011.41 1011.40 1011.01 1010.76 1009.73 1008.50 1007.58 1006.76 1005.78 1004.90 1003.84 1002.72 1001.76 1001.28 1000.82 1000.45 1000.07 999.85 999.37 998.42 998.20 997.86 997.77 997.73 997.31
1014.20 1013.88 1013.17 1012.16 1011.27 1011.07 1010.96 1011.03 1011.05 1010.39 1010.22 1010.41 1010.64 1010.81 1011.09 1011.52 1011.42 1011.40 1011.38 1011.48 1011.53 1011.23 1010.56 1009.44 1007.93 1007.08 1006.62 1005.74 1004.78 1004.06 1002.94 1001.15 1000.41 1000.04 999.86 999.61 999.44 999.08 998.04 997.54 997.30 997.44 997.25 996.82
1013.30 1012.61 1011.93 1011.33 1011.29 1010.76 1010.65 1010.69 1010.56 1009.66 1009.93 1010.29 1010.48 1010.90 1011.34 1011.89 1011.91 1011.95 1011.94 1011.73 1011.28 1010.60 1009.77 1008.74 1007.90 1006.94 1006.05 1005.27 1004.33 1003.77 1002.80 1001.45 1000.28 1000.03 1000.03 999.99 999.64 999.24 998.84 997.97 997.40 997.24 996.63 996.69
1011.96 1011.11 1010.50 1010.60 1010.52 1010.16 1009.85 1009.74 1009.46 1009.41 1009.74 1010.30 1010.62 1011.05 1011.39 1011.92 1012.18 1012.15 1011.72 1011.19 1010.42 1009.39 1008.57 1007.93 1007.52 1007.16 1006.36 1005.33 1004.34 1003.56 1003.07 1002.42 1001.72 1000.75 1000.19 999.84 999.49 998.93 998.35 998.15 997.68 996.73 996.07 996.00
Wind_Speed
21 21 21 22 22 18 4 3 3 4 0 1 1 2 3 5 7 5 4 3 7 8 9 5 2 5 8 16 17 10 3 3 3 16 6 19 14 9 9 10 10 3 4 8
22 22 21 21 21 13 3 3 3 2 2 3 2 4 5 4 3 3 3 4 3 3 5 6 7 2 7 9 16 12 8 5 3 3 5 4 24 14 9 6 5 13 4 7
21 21 21 19 19 12 3 3 5 5 4 1 3 6 5 4 4 6 4 4 5 3 6 4 5 5 4 4 10 16 8 3 4 6 3 5 14 15 15 7 5 7 21 4
20 20 21 20 18 9 3 3 2 1 5 3 9 4 4 6 6 3 4 4 2 4 3 7 2 6 4 5 6 6 6 4 3 10 11 8 5 19 18 24 19 8 6 8
20 20 20 19 18 5 3 1 2 3 5 6 6 3 2 4 6 5 5 3 7 6 5 7 8 8 3 3 4 3 6 5 8 6 12 8 10 8 20 22 16 15 6 9
19 19 19 18 17 4 1 2 3 1 3 6 3 4 4 6 14 8 6 6 11 12 10 5 10 10 10 7 3 5 3 3 6 5 10 8 9 20 9 13 18 13 12 16
19 19 19 17 16 6 1 2 2 2 4 2 4 6 13 14 13 13 15 12 5 5 9 12 9 10 12 12 13 9 6 4 2 4 5 6 6 7 15 13 7 13 7 7
20 20 19 18 16 13 2 1 2 1 4 5 11 8 9 12 12 6 8 8 5 5 4 3 4 3 2 8 14 14 10 4 3 2 3 7 6 8 7 3 10 8 12 12
21 21 20 17 15 12 3 3 3 2 3 5 5 11 10 7 5 5 5 5 5 1 1 1 2 3 1 2 4 10 10 8 4 1 2 5 1 12 11 7 6 11 11 9
22 21 20 18 16 13 2 2 4 2 4 7 4 5 4 4 3 4 6 6 5 5 2 2 2 3 3 3 2 5 5 5 8 6 3 7 10 19 10 8 5 17 13 12
23 22 20 18 16 13 3 3 5 3 4 9 8 6 5 4 4 3 4 6 0 2 2 1 3 2 2 3 3 1 4 5 4 3 4 6 13 7 9 7 8 10 12 10
22 22 20 18 15 13 3 3 2 3 4 8 4 15 18 14 18 7 3 3 4 2 2 2 2 2 1 3 3 3 3 3 2 3 3 4 8 5 6 4 10 10 14 15
23 22 20 17 15 12 4 3 3 2 3 6 2 5 3 4 10 12 4 2 3 2 2 2 2 3 2 2 0 1 0 4 3 2 2 12 15 8 6 11 14 16 14 16
25 22 19 16 12 8 8 3 2 2 3 4 7 3 4 5 2 5 12 6 3 2 1 1 2 3 3 3 2 2 2 2 0 5 6 13 2 12 14 19 19 19 19 16
26 24 21 16 12 8 4 3 4 3 0 4 6 13 2 3 5 5 6 8 5 1 3 2 3 3 1 1 1 2 3 2 1 3 6 6 10 13 18 17 19 20 17 18
27 28 24 16 9 3 2 4 1 5 4 3 5 4 5 4 7 8 8 5 3 2 2 3 3 3 3 2 1 6 7 5 5 3 6 10 15 16 11 15 18 20 20 15
29 27 25 15 8 4 3 4 0 8 3 2 5 5 4 5 5 3 2 2 1 2 2 3 3 3 3 2 0 8 10 11 7 10 9 8 4 13 20 19 18 17 16 11
31 28 15 3 11 1 3 1 10 6 2 1 3 6 4 4 3 2 3 1 1 1 2 3 2 4 2 3 2 7 8 13 10 4 6 9 11 14 19 16 15 15 14 13
33 20 7 3 2 1 2 4 6 1 1 1 2 3 5 4 2 2 4 2 1 1 2 2 3 3 2 3 8 11 10 6 11 14 13 14 15 11 20 14 16 12 12 13
21 3 2 2 1 9 6 2 1 0 1 1 3 2 4 1 2 2 3 2 2 2 1 3 1 1 4 3 10 12 12 13 13 11 12 10 8 9 16 15 13 14 10 11
6 6 3 4 11 2 2 1 1 1 2 3 4 4 3 1 2 2 1 2 2 2 2 4 3 3 5 10 11 13 12 12 14 16 14 12 14 14 13 18 15 14 13 8
6 8 7 4 3 2 1 1 3 1 3 3 3 3 3 0 2 1 1 1 1 2 4 2 2 5 15 15 15 12 11 11 12 15 15 13 13 14 14 16 16 15 12 7
2 3 3 1 2 5 3 1 3 3 3 4 3 4 1 2 3 1 3 4 2 3 2 3 3 10 14 16 14 12 11 9 10 8 11 12 15 15 15 16 14 14 9 10
2 3 6 4 3 4 5 5 5 6 5 4 1 2 1 1 3 1 2 2 3 5 4 2 5 10 13 13 13 14 15 13 9 9 9 11 11 13 15 13 12 9 8 9
4 3 5 6 4 3 3 3 2 4 2 0 1 1 2 2 2 2 2 5 3 3 3 4 7 13 12 13 12 12 14 17 12 8 6 10 9 9 9 9 10 9 8 6
4 5 3 2 1 4 2 3 5 2 2 2 2 2 2 1 1 4 1 2 3 4 4 5 9 12 12 12 13 11 12 18 17 9 3 6 9 7 6 8 11 10 8 7
5 5 3 3 2 5 3 4 4 2 3 1 2 1 4 2 3 2 3 4 5 5 7 7 8 8 11 11 12 11 12 12 15 15 9 7 8 8 7 7 7 8 7 7
Wind_Direction
334 335 339 339 340 340 17 332 27 287 264 273 104 255 260 295 293 290 276 264 230 254 292 312 304 271 284 332 340 344 314 305 211 215 147 197 203 178 163 192 190 182 151 277
335 334 336 338 340 353 322 331 276 312 310 53 351 276 281 264 291 288 324 303 256 343 310 326 347 88 252 336 336 347 346 313 134 15 266 202 199 197 158 106 110 203 144 248
337 335 333 335 340 352 63 11 345 319 34 165 314 329 286 302 280 265 258 260 269 295 303 255 269 277 276 289 311 324 329 271 259 200 266 105 204 201 200 150 157 163 220 211
339 335 334 342 341 358 83 26 319 43 316 333 316 296 291 318 334 339 300 318 321 349 281 310 254 359 297 268 33 18 353 274 264 276 272 307 325 202 200 210 214 182 185 205
339 336 333 337 339 359 68 33 359 328 295 293 317 329 272 292 290 313 303 231 322 314 248 259 286 300 9 300 128 96 323 289 348 302 288 269 270 254 217 210 218 223 186 250
338 335 333 330 333 36 24 311 300 253 270 309 16 272 340 315 317 285 229 296 312 296 281 323 289 272 265 242 178 193 180 309 352 293 341 312 254 237 226 224 214 183 193 222
332 332 333 323 323 333 199 238 263 276 294 287 276 284 295 289 297 291 287 284 263 255 329 311 265 249 243 229 224 210 187 153 237 269 318 208 251 188 197 212 228 231 249 183
329 332 326 320 320 325 182 226 232 262 273 262 285 272 306 305 307 270 262 282 240 323 285 286 298 268 203 234 220 200 203 127 261 225 265 288 316 45 2 154 241 188 206 233
330 332 324 319 315 318 190 207 187 239 273 245 259 305 298 294 299 306 251 282 309 334 314 296 223 242 305 231 130 193 203 203 218 269 229 229 277 323 314 253 218 8 349 301
328 331 324 320 318 311 230 261 186 264 270 277 230 238 299 280 281 275 299 336 337 346 219 222 278 263 275 246 172 149 92 135 199 225 274 286 343 321 310 138 289 328 328 317
329 330 324 321 315 302 189 251 186 204 251 275 229 248 223 245 235 276 334 316 63 294 261 218 260 279 297 332 37 148 117 169 180 197 237 273 359 13 54 272 297 307 309 307
329 331 321 316 310 302 253 239 196 168 241 267 285 265 258 230 244 261 236 274 289 275 310 337 280 288 4 288 206 245 155 194 126 255 286 329 326 299 271 275 303 307 308 303
327 325 320 315 307 300 277 212 180 173 267 284 299 256 268 217 223 210 217 202 252 249 213 343 289 287 258 271 170 107 69 177 213 268 28 324 307 313 303 323 322 313 310 302
326 327 323 318 305 293 294 198 194 150 267 283 271 274 333 326 134 170 215 235 342 328 239 250 266 283 309 337 336 338 295 281 212 274 309 319 197 339 330 322 321 324 325 318
327 326 326 319 301 282 276 253 209 179 185 286 301 317 177 231 136 238 223 224 238 257 270 241 245 249 270 260 205 250 204 199 251 267 260 275 283 307 321 320 319 323 322 318
327 326 324 314 281 225 73 329 203 182 183 280 304 302 292 272 231 239 178 193 180 208 232 260 267 254 203 322 265 8 2 317 210 235 251 267 284 296 315 325 317 316 319 312
326 327 320 302 205 132 165 193 238 163 156 277 297 296 285 320 314 359 81 106 138 239 231 240 235 279 173 215 15 348 335 312 304 273 294 302 318 307 318 324 321 313 312 301
325 326 321 77 146 322 336 313 159 158 153 60 293 278 302 5 307 349 2 49 138 190 288 340 327 322 39 35 327 340 330 328 318 323 309 278 295 307 304 308 317 312 322 324
324 324 138 94 70 90 234 13 150 184 180 186 257 289 299 357 276 15 339 12 351 11 284 353 334 3 2 318 334 323 322 280 276 296 301 300 287 285 285 297 314 306 318 334
324 35 6 338 253 316 108 13 74 240 266 155 248 235 267 267 293 34 358 13 18 331 252 279 261 261 235 266 305 301 292 285 274 261 276 283 266 271 280 298 303 306 304 329
6 359 321 305 306 96 64 218 124 301 268 222 238 226 267 198 340 334 31 337 316 318 1 324 337 332 269 291 290 295 288 271 268 258 251 251 261 272 287 289 292 298 304 313
267 286 290 274 324 27 133 304 324 213 255 271 221 264 215 7 46 94 340 34 357 309 333 296 358 288 309 322 326 301 312 318 283 264 249 250 259 258 259 266 276 288 302 291
242 218 248 32 285 31 138 233 302 307 265 255 345 319 353 1 55 90 52 43 321 326 356 344 251 303 317 324 325 327 319 298 309 293 253 249 248 254 252 259 265 275 286 285
232 236 291 173 262 246 186 187 205 235 227 287 310 258 76 318 47 301 10 346 48 20 27 295 271 302 313 319 321 319 317 326 289 296 295 289 290 279 265 246 252 262 267 288
220 137 246 227 232 243 211 217 287 240 240 102 356 44 89 0 69 3 16 15 350 198 244 252 289 307 308 311 321 330 334 333 316 283 273 281 279 285 300 272 247 234 240 255
225 226 272 247 337 277 215 196 252 210 147 93 61 70 59 60 25 49 97 310 255 274 239 254 299 303 311 321 325 334 336 357 352 358 328 282 287 283 273 290 292 238 210 221
229 250 215 184 241 224 241 187 242 149 94 225 111 26 221 84 41 331 200 212 224 236 276 295 293 291 306 316 327 336 342 357 10 3 354 349 329 307 312 304 329 282 225 219